Hlavní strana
METAR-TAF:

METAR-TAF

Letiště :

Huntsville, Alabama, Spojené státy americké

zeměpisná šířka: 34-51-41N, zeměpisná délka: 086-33-26W, výška: 230 m

Aktuální stav počasí

Zpráva byla vytvořena před 29 minutami, v 07:55 UTC
Severní vítr 10 kt
Teplota -4°C
Vlhkost vzduchu 68%
Tlak 1033 hPa
Viditelnost: 16.1 km
Zataženo ve výšce 2700 ft

METAR: KMDQ 210755Z AUTO 36010KT 10SM OVC027 M04/M09 A3049 RMK A02 T10441089

Čas: 02:24 (08:24 UTC)


TAF: chybějící

Stav a předpovědi počasí z více než 4 000 letišť (zprávy METAR a TAF).

Červené a žluté tečky na mapě představují dostupné meteorologické stanice.

Když kurzor umístíte na tečku, zobrazí se název stanice.

Pak kliknutím zobrazíte stav a předpověď počasí.

Chcete-li změnit mapu, kliknutím na zelené tlačítko se znaménkem +mapu přiblížíte, kliknutím na zelené tlačítko se znaménkem – mapu oddálíte a kliknutím na zelené šipky přejdete na sousední mapy.


METAR-TAF: